Flag for Germany Weather past 2 weeks in Dinslaken, North Rhine-Westphalia, Germany

Now
53 °F

Fog.


Feels Like: 53 °F
Forecast: 47 / 60 °F
Wind: 1 mph from West

Location: Essen

Current Time: Sep 22, 2014 at 12:30:43 AM

Latest Report: Sep 22, 2014 at 12:00 AM


Visibility: 4 mi

Pressure: 30.12 "Hg

Humidity: 90%

Dew point: 51 °F

Location of DinslakenLocation

Historic Weather in Dinslaken — Graph

°F

Dinslaken temperature yesterday

Maximum temperature yesterday: 64 °F (at 4:00 PM)
Minimum temperature yesterday: 54 °F (at 11:00 PM)
Average temperature yesterday: 60 °F

Past Weeks' High & Low Weather Summary

 TemperatureHumidityPressure
High77 °F (Sep 17, 4:00 PM)100% (Sep 14, 6:00 AM)30.25 "Hg (Sep 14, 6:00 AM)
Low48 °F (Sep 12, 6:00 AM)49% (Sep 17, 6:00 PM)29.82 "Hg (Sep 19, 5:00 AM)
Average62 °F81%30.03 "Hg
* Reported Sep 6 11:00 PM — Sep 21 11:00 PM, Dinslaken, Weather by CustomWeather, © 2014

Note: Actual official high and low records may vary slightly from our data, if they occured in-between our weather recording intervals... More about our weather records

Advertising

Dinslaken weather history for previous 24 hours

 ConditionsComfort  
Time TempWeatherWind HumidityBarometerVisibility
11:00 PM
Sep 21
54 °FFog.2 mph87%30.11 "Hg4 mi
10:00 PM54 °FClear.2 mph85%30.11 "Hg5 mi
9:00 PM56 °FPassing clouds.3 mph79%30.09 "Hg7 mi
8:00 PM57 °FOvercast.3 mph75%30.08 "Hg11 mi
7:00 PM59 °FOvercast.6 mph69%30.06 "Hg25 mi
6:00 PM61 °FPassing clouds.7 mph60%30.04 "Hg25 mi
5:00 PM62 °FScattered clouds.5 mph59%30.03 "Hg40 mi
4:00 PM64 °FScattered clouds.5 mph61%30.01 "Hg22 mi
3:00 PM62 °FOvercast.5 mph71%30.02 "Hg31 mi
2:00 PM61 °FOvercast.2 mph88%30.03 "Hg14 mi
1:00 PM60 °FOvercast.5 mph86%30.03 "Hg17 mi
12:00 PM60 °FLow clouds.5 mph92%30.02 "Hg11 mi
11:00 AM59 °FLight freezing rain. Low clouds.6 mph94%30.01 "Hg6 mi
10:00 AM60 °FLight freezing rain. Low clouds.5 mph99%29.99 "Hg2 mi
9:00 AM60 °FRain. Low clouds.2 mph98%29.97 "Hg1 mi
8:00 AM60 °FFog.2 mph98%29.96 "Hg1 mi
7:00 AM60 °FLow clouds.3 mph98%29.96 "Hg1 mi
6:00 AM60 °FFog.3 mph96%29.96 "Hg2 mi
5:00 AM61 °FFog.2 mph97%29.96 "Hg1 mi
4:00 AM61 °FLow clouds.3 mph98%29.96 "Hg1 mi
3:00 AM61 °FLow clouds.2 mph100%29.96 "Hg1 mi
2:00 AM62 °FFog.1 mph96%29.97 "Hg2 mi
1:00 AM62 °FFog.1 mph92%29.97 "Hg3 mi
12:00 AM62 °FLow clouds.1 mph90%29.97 "Hg6 mi
Weather by CustomWeather, © 2014

See weather overviewHow to use our weather pages